Orbital Elements at Epoch 2459200.5 (2020-Dec-17.0) TDB
Reference: JPL 18 (heliocentric ecliptic J2000)
Element | Value | Uncertainty (1-sigma) | Units |
e | .09056870008533488 | 3.2953e-08 | |
a | 2.224157546798428 | 8.3941e-09 | au |
q | 2.022718488999907 | 7.4274e-08 | au |
i | 6.151180581780459 | 3.8154e-06 | deg |
node | 184.1885645668856 | 2.9668e-05 | deg |
peri | 329.6460369040428 | 3.6442e-05 | deg |
M | 82.56414298225535 | 1.9569e-05 | deg |
tp | 2458922.633798730298 (2020-Mar-14.13379873) | 6.6169e-05 | TDB |
period | 1211.565079511471 3.32 | 6.8588e-06 1.878e-08 | d yr |
n | .2971363289417021 | 1.6821e-09 | deg/d |
Q | 2.425596604596949 | 9.1543e-09 | au |
|
| | Orbit Determination Parameters
Additional Information
|